Dewpoint
33 30 28 29 29 30 34 37 37 37 38 40 38 38 39 40 42 41 38 42 37 32 31 31 32 31 32 32 29 31 31 30 29 27 26 24 23 25 23 24 23 22 23 24 24 22 20 25 25 23 23 21 26 28
31 30 28 29 29 29 32 35 38 38 40 39 38 39 41 42 42 41 36 39 41 34 31 36 35 35 34 35 33 32 30 30 31 26 26 25 22 24 22 20 26 22 25 24 25 24 25 23 24 24 20 16 17 19
28 29 30 31 30 29 30 33 36 37 39 39 39 41 41 42 41 40 38 38 37 33 32 31 30 34 36 36 37 31 32 33 31 32 29 26 23 22 20 22 22 22 22 25 24 26 20 16 18 18 16 17 20 22
31 32 31 30 31 30 29 30 33 34 37 37 37 39 39 41 40 39 37 39 35 33 26 29 35 32 35 36 35 36 35 34 32 31 28 26 23 26 22 23 22 21 19 20 23 18 16 19 20 20 20 20 19 18
29 28 29 30 30 30 29 29 30 31 32 34 37 37 37 38 40 39 39 39 39 32 25 27 31 33 33 33 32 32 30 29 27 25 25 23 24 23 21 21 19 17 17 16 17 22 19 17 18 18 17 17 16 16
28 27 28 28 27 28 27 27 28 29 30 30 34 37 37 37 38 37 31 39 39 37 28 22 29 29 31 30 30 30 31 30 28 25 25 26 26 20 16 16 15 15 16 17 18 17 17 16 16 17 16 16 15 16
28 27 27 26 26 27 25 26 27 28 29 29 35 37 37 37 37 33 31 35 39 38 28 23 23 28 30 28 28 28 28 27 27 26 24 24 25 21 18 15 14 14 15 16 17 17 15 15 14 14 15 16 16 14
29 28 27 27 26 26 26 26 26 27 28 27 35 35 35 35 34 31 32 36 35 33 28 20 20 23 30 25 24 27 24 23 25 25 24 23 23 19 14 14 14 14 14 13 14 15 14 13 11 11 12 12 11 11
28 28 28 27 26 26 26 26 26 26 25 26 34 31 30 30 26 26 35 32 30 28 23 21 18 17 27 25 25 23 22 20 23 22 23 21 19 13 11 13 13 13 13 12 12 12 11 11 10 10 9 9 9 9
29 29 27 27 26 25 26 26 26 25 24 28 28 23 22 25 32 26 19 18 19 20 22 19 21 18 22 24 22 20 21 18 15 20 21 17 9 9 9 11 10 11 12 12 12 11 9 8 8 8 9 9 9 9
29 29 27 26 26 25 26 26 25 25 25 21 21 25 28 30 20 14 14 15 14 15 20 21 20 19 22 18 19 20 17 15 11 16 14 15 12 8 9 10 11 10 10 10 10 10 9 9 9 8 7 8 8 8
29 29 28 25 25 26 26 25 25 24 23 22 22 29 29 16 12 9 10 12 15 14 17 18 18 20 21 21 17 17 14 12 10 16 12 11 7 8 10 10 10 10 10 9 8 6 6 7 8 7 7 6 6 7
29 28 27 25 24 27 25 24 23 23 29 30 29 23 18 12 11 9 9 11 12 15 19 18 17 19 20 17 16 14 11 12 16 10 9 6 8 9 9 10 10 10 10 8 7 7 7 7 8 7 6 7 7 6
29 28 25 23 25 25 24 23 21 26 23 22 18 12 11 9 9 9 9 10 13 15 14 16 18 17 17 16 12 10 12 12 8 7 6 6 8 9 9 10 10 7 5 5 5 6 6 6 5 6 6 6 6 6
28 28 23 23 25 24 23 21 21 20 16 12 10 8 9 13 14 14 14 14 12 13 13 17 17 16 15 14 11 11 10 8 6 5 6 6 8 9 9 5 5 4 4 4 4 5 5 5 5 5 5 6 5 5
28 25 20 25 24 23 21 16 11 14 8 7 7 7 7 10 9 9 9 10 12 10 14 17 14 13 12 12 11 9 6 5 6 6 7 8 7 6 5 5 6 5 5 5 5 5 5 5 5 5 4 4 5 5
27 16 24 24 23 21 17 9 6 4 5 6 6 6 7 6 5 6 7 7 9 10 12 14 12 10 12 9 7 7 7 7 7 8 8 7 5 5 5 6 6 6 6 6 5 4 4 4 2 2 4 5 6 6
23 24 25 23 21 13 9 6 1 1 1 3 4 5 7 5 4 4 5 6 6 8 10 10 11 10 8 6 6 7 7 8 9 8 8 6 5 5 6 5 6 6 6 6 4 4 3 4 4 5 6 5 6 6
28 25 22 21 18 8 4 5 3 1 3 4 5 5 6 6 6 5 4 1 4 9 8 10 8 5 4 5 6 7 8 7 6 6 5 5 4 5 5 6 6 5 5 5 4 4 5 5 5 5 5 5 5 6
23 20 20 18 12 3 1 2 1 2 1 4 3 3 2 4 2 0 -2 -1 1 3 3 2 1 2 3 3 6 7 6 6 6 5 4 4 4 3 4 4 4 4 4 3 3 7 6 5 4 4 5 8 9 6
13 17 14 8 1 1 1 1 2 3 3 4 -1 -0 1 -1 -0 -2 -2 -4 -2 -5 -2 1 1 3 3 2 4 3 3 3 3 2 3 3 4 3 3 3 3 3 3 3 3 3 4 3 4 5 6 7 7 8
13 14 3 4 -1 -2 -0 0 2 1 3 1 -1 -4 -1 0 -2 -4 -7 -3 -4 -2 -1 0 1 1 3 2 1 -0 -1 0 0 2 6 5 3 2 2 2 2 2 1 2 2 2 3 3 4 8 9 8 10 9
9 5 -2 -3 -2 -4 -3 -4 -0 -2 -3 -2 -5 0 -1 -3 -5 -7 -4 -5 -1 1 2 1 0 -2 1 1 0 -0 -1 -0 -0 -0 -0 0 0 1 1 1 -0 1 1 1 1 2 2 6 6 8 9 8 8 8
4 -4 -4 -5 -6 -5 -5 -3 -6 -4 -4 -4 -4 -4 -3 -4 -7 -3 -4 -2 1 3 2 1 2 2 3 3 1 1 0 -2 -2 -2 -3 -1 1 0 -1 -1 -1 -2 -1 0 1 3 3 4 7 6 6 7 7 7
-5 -7 -7 -6 -7 -6 -7 -7 -5 -4 -4 -7 -4 -2 -4 -6 -3 -4 -4 -2 0 1 1 3 2 1 1 1 1 -0 -1 -1 -2 -2 -2 -3 -1 -2 -1 -1 -1 -0 -0 2 3 4 4 4 5 5 5 6 7 9
-9 -6 -6 -6 -4 -5 -5 -6 -5 -4 -5 -3 -4 -5 -5 -4 -3 -5 -4 -1 0 0 1 0 -0 1 1 -0 -1 -1 -1 -3 -5 -3 -2 -2 -2 -3 -2 -2 -1 0 -0 2 3 3 4 5 5 5 6 8 9 8
-10 -6 -2 0 0 -2 -2 -3 -4 -3 -3 -2 -4 -4 -4 -4 -5 -3 1 2 2 2 3 2 1 0 -0 -0 -1 -1 -2 -4 -4 -1 -2 -3 -4 -3 -2 -0 0 2 4 6 7 6 5 6 6 8 9 9 7 6
-3 -2 -5 -5 -4 -5 -3 -3 -3 -2 -3 -2 -2 -4 -4 -4 -3 0 1 3 2 3 2 2 1 1 -0 -1 -3 -3 -2 -4 -4 -6 -6 -6 -5 -4 -1 1 3 7 9 7 8 10 10 10 10 10 9 7 6 5
-2 -2 -4 -3 -4 -4 -4 -2 -3 -2 -1 -1 -2 -2 -2 0 1 1 3 3 3 2 1 1 1 -0 -2 -2 -2 -2 -3 -2 -1 -2 -2 -2 -1 -0 -1 0 2 2 3 4 8 11 12 13 12 11 9 6 6 6
-2 -1 -2 -5 -2 -1 -5 -5 -4 -3 -1 -1 -1 -1 0 1 2 4 3 2 2 1 1 1 -0 -1 -2 -3 -3 -3 -2 -0 -1 -0 -2 -2 -1 1 2 2 2 3 4 5 6 7 9 9 6 5 5 4 4 6
-2 -4 -4 -5 -3 -7 -7 -7 -5 -2 -4 -4 -4 -4 -4 -2 0 4 3 2 2 1 1 -0 -1 -1 -2 -3 -4 -4 -3 -1 -0 1 1 2 3 3 3 3 4 5 6 7 7 8 7 5 5 4 3 3 3 3
-5 -4 -3 -2 -5 -8 -9 -7 -8 -7 -6 -6 -5 -5 -4 -3 -3 1 3 3 2 0 1 0 -1 -2 -2 -3 -4 -4 2 2 0 1 1 2 2 3 4 6 7 8 9 11 10 8 6 5 4 3 3 2 2 2
-11 -11 -11 -8 -7 -7 -8 -8 -8 -7 -7 -6 -4 -3 -3 -3 -3 1 4 4 3 2 0 -1 -2 -3 -4 -5 -5 -5 1 -0 0 6 7 7 8 8 9 11 12 11 11 11 8 7 5 4 3 2 2 2 2 2
Wind_Speed
32 32 34 36 38 40 41 42 34 28 28 29 23 21 21 21 17 8 5 7 6 2 8 9 7 5 4 3 10 10 9 2 3 5 6 5 4 6 5 3 9 14 14 9 5 8 22 11 7 10 3 14 18 17
31 32 33 35 37 39 39 39 39 35 30 30 24 22 23 19 13 9 5 10 7 4 3 3 2 11 8 5 6 2 3 5 5 7 4 6 4 5 8 11 2 7 5 10 8 4 5 6 5 4 11 18 11 17
30 31 33 33 34 38 38 39 39 36 33 32 30 27 24 18 16 10 5 10 4 3 4 8 7 12 16 10 6 3 2 3 3 1 6 5 5 4 7 5 7 3 3 6 6 6 10 10 10 8 11 16 16 19
31 32 32 34 32 35 37 37 38 37 37 32 31 29 28 21 15 13 5 11 4 3 4 4 8 7 16 12 3 1 8 6 5 5 6 5 6 1 2 6 6 2 5 9 7 11 16 13 10 12 19 19 19 16
31 33 33 33 33 32 35 37 35 36 35 35 32 28 27 26 13 9 6 10 12 3 2 2 6 13 18 15 19 16 11 6 3 5 6 5 4 5 2 5 5 7 3 6 7 12 9 7 7 11 20 16 14 17
31 31 31 33 34 33 34 36 36 36 35 33 31 27 23 21 18 2 2 5 14 6 3 4 3 8 15 14 19 19 11 9 4 5 5 4 1 3 5 5 3 6 7 3 7 12 22 16 14 11 18 14 14 15
30 29 31 32 33 32 34 36 36 36 36 35 29 25 21 15 8 5 4 10 15 2 3 3 4 7 10 7 6 8 10 7 6 4 5 3 4 4 4 5 4 7 11 14 12 15 14 8 11 13 15 14 15 15
29 30 30 31 32 31 35 35 36 36 38 35 27 21 10 7 4 1 3 20 8 4 4 3 3 5 10 7 5 9 6 6 11 4 2 4 3 4 6 7 8 8 14 18 16 15 17 17 16 15 13 13 13 11
28 30 30 30 29 31 33 35 36 37 38 31 24 11 3 7 7 8 23 10 4 4 3 3 2 2 8 5 5 6 5 6 4 4 4 3 5 6 3 7 5 6 5 13 16 18 18 18 14 11 11 11 10 7
28 29 30 29 26 32 33 34 36 37 33 22 10 6 5 6 19 12 8 5 7 8 7 5 4 2 5 4 5 3 5 4 3 5 4 6 4 4 5 8 8 6 7 10 16 11 10 11 10 9 10 8 7 6
29 30 30 29 25 33 33 34 34 32 11 9 10 5 8 13 5 6 4 6 7 5 6 4 6 3 7 3 3 4 3 3 3 2 2 2 3 3 3 9 9 11 13 14 14 12 11 10 8 7 5 4 4 4
28 30 30 27 25 33 33 33 31 13 5 7 10 8 5 9 5 4 4 4 7 4 6 4 5 4 4 3 3 5 3 2 2 2 3 3 3 6 9 8 8 9 12 13 12 11 8 7 5 4 3 4 4 5
28 30 30 23 27 33 33 31 28 23 13 2 2 5 6 6 7 6 7 5 4 9 7 6 4 4 4 7 5 2 3 3 1 3 1 1 6 9 10 8 9 7 9 10 8 7 6 5 3 3 4 4 6 10
27 30 27 17 30 33 32 28 24 12 5 5 6 6 7 7 8 5 6 5 4 6 11 8 3 5 3 4 2 4 2 2 2 1 3 7 10 11 8 7 9 7 7 7 7 6 5 5 6 5 5 6 8 12
26 30 15 16 30 33 29 25 15 7 6 6 6 6 7 4 2 5 6 3 7 9 8 3 2 3 3 3 4 4 2 2 4 3 3 10 14 14 11 9 8 7 5 5 5 7 8 9 10 12 11 12 12 12
25 19 7 29 29 30 23 13 8 4 5 5 8 4 10 4 8 8 10 7 10 13 7 3 1 1 0 2 2 2 5 4 1 1 6 12 12 11 9 8 7 5 5 7 8 7 7 9 10 12 14 13 11 10
15 3 22 25 27 21 17 5 6 7 5 4 3 2 3 3 5 6 6 8 12 8 3 3 1 1 2 2 2 1 1 1 6 9 8 10 10 8 7 7 6 6 6 5 5 6 7 7 7 8 12 13 13 13
4 12 16 20 19 7 5 8 5 5 5 3 2 3 4 2 6 4 7 8 8 7 6 2 4 1 1 2 1 2 4 8 10 9 9 9 10 8 6 6 4 3 2 4 5 7 6 8 9 10 11 13 14 14
11 13 12 15 9 4 4 6 5 3 1 1 3 2 2 4 4 6 7 10 6 5 7 3 3 3 3 4 4 7 7 4 5 4 6 7 7 6 4 3 2 3 4 5 6 7 8 8 9 11 12 12 13 13
6 6 12 8 7 2 2 3 4 4 1 1 2 4 5 4 8 6 5 11 6 3 6 5 4 3 3 4 6 6 6 4 7 8 5 3 3 3 3 2 3 4 4 4 7 8 8 11 9 10 11 12 13 15
4 5 8 5 5 8 5 2 3 2 0 1 3 4 5 5 4 8 8 11 5 5 4 4 3 4 4 4 6 6 8 6 4 3 3 4 0 2 2 4 6 5 4 7 9 10 10 11 14 13 13 14 14 15
2 6 3 6 5 4 6 3 2 1 0 1 1 4 3 3 5 6 9 8 4 2 2 3 3 3 3 5 5 6 5 5 5 3 3 2 1 2 3 5 7 8 8 8 8 9 12 13 13 12 12 15 14 14
4 3 4 6 1 4 1 4 0 5 1 3 3 2 2 4 3 6 4 2 1 2 2 2 1 1 4 3 5 6 7 8 7 5 3 2 3 3 3 7 4 6 9 8 4 11 13 14 15 13 13 16 15 16
7 5 3 3 4 1 3 3 3 3 3 4 4 4 4 5 9 4 3 2 3 3 6 6 2 4 3 3 4 4 4 6 9 5 1 2 3 6 9 8 7 6 8 10 11 13 14 14 15 15 15 15 15 16
0 3 3 1 3 1 1 2 3 2 1 3 3 2 3 4 3 3 2 2 3 4 6 5 7 6 3 2 2 4 2 4 9 9 4 1 3 10 9 7 7 7 3 5 12 14 16 15 14 15 16 16 17 18
2 2 1 1 2 2 1 1 0 0 1 2 1 3 2 2 2 1 1 2 2 2 3 4 4 3 4 3 5 5 5 2 4 6 4 2 5 7 7 8 11 10 2 7 13 16 17 16 16 19 17 17 20 19
2 3 1 1 0 2 2 3 3 1 0 1 2 3 3 2 1 1 0 1 1 1 1 1 1 2 4 7 7 7 9 7 8 9 11 12 9 8 8 5 11 11 13 14 13 13 16 18 18 18 16 14 13 15
3 3 4 2 2 2 2 1 1 1 1 1 0 1 1 1 1 1 1 1 1 1 1 2 1 2 5 7 9 10 8 6 11 7 5 4 5 7 9 10 11 17 15 13 13 13 13 16 19 13 13 14 16 15
3 2 3 2 1 2 1 2 2 1 1 1 1 1 1 1 0 1 1 1 1 1 3 4 4 7 6 7 4 5 5 3 7 8 9 8 8 5 5 11 13 13 12 13 18 16 16 16 13 12 10 12 13 13
2 1 3 2 2 2 1 1 1 1 1 1 1 2 1 0 1 1 1 1 0 1 2 3 4 5 7 10 12 10 3 2 2 2 6 9 9 14 15 15 16 15 13 12 14 15 14 11 11 10 11 11 11 11
2 2 3 2 2 1 0 2 2 1 1 1 1 1 1 2 2 0 0 0 1 1 4 4 7 6 7 10 9 9 7 1 2 7 9 11 13 15 16 16 15 14 13 14 14 10 10 10 10 11 11 13 14 14
2 2 3 3 2 1 3 1 1 1 0 0 0 1 1 1 1 1 1 1 2 5 6 6 10 13 10 11 9 9 12 11 12 12 16 15 16 18 19 17 16 14 12 13 10 7 8 8 8 9 10 12 13 14
2 2 3 3 2 2 2 1 2 1 1 0 0 1 1 0 1 0 1 1 1 4 7 10 12 13 13 11 11 9 8 9 12 17 18 19 21 19 16 14 11 10 11 12 7 4 6 6 7 8 10 11 12 12
Wind_Direction
2 6 4 1 358 354 353 355 3 353 347 340 349 343 346 342 347 2 301 355 345 345 14 5 5 28 62 80 147 152 120 142 133 140 147 147 132 177 135 122 174 177 177 189 157 210 246 151 126 174 147 118 141 142
359 0 1 0 358 357 356 355 358 357 4 358 1 357 350 345 8 2 333 338 327 60 355 299 65 41 359 343 102 62 90 116 150 121 133 111 135 155 141 172 36 175 149 166 183 203 94 114 94 72 142 141 140 133
357 355 354 357 359 355 357 356 357 358 1 8 8 12 12 22 25 26 350 340 3 47 33 23 352 328 0 349 318 101 55 131 102 50 124 133 131 143 147 149 118 101 121 113 127 73 89 70 64 82 108 117 118 124
352 351 353 353 355 355 354 356 354 356 355 357 0 7 8 8 37 32 17 3 41 15 65 17 336 22 329 4 52 196 127 76 88 75 78 91 105 86 117 126 98 94 148 135 94 116 97 68 71 95 96 95 97 86
355 353 353 351 352 353 350 350 351 351 350 349 344 350 352 1 345 81 58 28 20 25 113 6 326 354 355 18 53 59 94 108 78 75 67 73 86 100 63 97 71 347 109 134 161 153 114 120 88 94 100 97 97 106
353 352 351 352 351 351 348 347 345 346 345 345 335 333 341 349 353 321 333 40 10 10 68 54 312 343 352 3 39 39 36 49 73 86 98 96 88 123 98 81 9 10 24 317 126 85 100 103 88 88 94 92 88 90
350 351 353 352 349 352 348 346 342 342 341 340 335 335 332 341 11 31 43 333 348 359 72 64 12 354 343 355 27 15 30 45 59 76 55 73 30 55 82 107 126 54 67 72 84 103 85 48 109 84 90 87 89 83
350 350 350 351 348 351 347 344 343 341 338 336 332 330 340 5 58 310 296 340 346 71 61 81 356 13 6 16 33 5 26 27 28 62 57 53 34 47 78 114 107 72 73 61 60 76 106 111 90 81 85 94 90 81
349 346 348 348 349 349 348 345 343 341 336 332 330 326 18 30 12 309 314 324 31 63 82 65 46 20 350 27 16 25 32 58 328 63 44 41 21 58 70 132 97 40 93 116 88 89 94 95 93 82 82 73 80 59
346 345 345 346 347 347 346 343 342 340 337 337 11 19 20 331 313 323 10 20 28 5 32 64 349 38 356 22 43 35 25 41 53 23 360 58 82 89 55 82 83 69 105 107 104 101 97 91 87 77 67 59 45 20
342 342 343 345 346 346 345 343 342 344 355 6 1 346 298 321 1 26 33 41 350 44 18 17 33 34 8 61 90 30 84 14 90 357 66 83 115 139 123 98 77 70 85 82 92 92 88 105 102 91 76 52 21 349
338 338 341 343 346 345 345 343 344 350 311 285 286 295 302 14 16 39 21 351 40 41 2 15 355 4 349 348 80 11 96 38 99 347 87 146 154 149 143 122 107 97 95 89 88 89 83 88 85 84 69 11 341 316
336 336 338 343 345 343 344 345 343 336 326 317 5 4 2 345 23 29 6 13 27 354 359 351 358 354 349 33 74 68 70 77 45 58 177 166 144 149 145 129 110 93 96 97 79 70 76 70 68 52 360 345 322 314
333 334 337 345 343 343 345 346 346 344 9 37 13 10 28 17 20 11 340 333 334 330 340 335 4 23 353 38 33 72 27 63 77 237 226 170 167 154 143 128 124 112 92 86 80 63 43 12 6 357 339 333 331 325
330 331 334 343 346 343 344 344 350 18 44 45 34 29 24 343 346 353 338 1 356 319 335 337 13 12 16 80 41 104 108 214 213 220 156 155 150 142 132 122 120 116 100 73 43 24 8 358 349 334 337 337 328 318
332 330 339 342 344 343 344 350 18 45 54 53 44 22 342 344 351 360 354 347 350 331 302 252 339 44 40 105 130 172 161 220 172 140 126 128 127 119 116 113 109 95 65 38 22 4 341 335 332 324 324 321 312 300
342 295 332 336 343 344 1 31 31 47 71 58 53 28 335 285 289 319 335 330 325 327 357 321 304 316 99 83 125 47 162 72 120 108 101 115 118 111 103 96 73 52 34 13 343 332 319 320 327 325 322 322 314 299
268 300 325 341 352 353 16 29 75 59 69 39 75 348 317 269 311 309 325 325 340 346 336 15 312 288 70 162 188 124 101 81 78 91 93 96 99 87 66 68 51 22 359 338 324 322 323 326 325 318 306 305 308 305
310 327 342 351 13 32 11 26 27 84 82 306 319 335 302 285 251 299 305 325 284 276 315 355 56 59 55 34 57 92 93 88 116 88 90 81 76 73 58 36 34 26 351 337 333 323 313 302 298 307 311 311 300 294
342 8 0 22 46 30 25 32 15 94 94 341 351 329 307 288 312 319 343 3 357 28 38 38 45 28 25 20 22 70 70 80 122 122 128 88 58 71 63 43 16 339 335 337 340 340 334 334 323 310 306 297 307 306
32 352 16 50 55 61 78 34 51 80 170 96 337 351 309 346 9 8 354 343 55 39 51 27 43 36 48 44 41 63 58 65 92 130 152 168 37 356 23 6 357 354 351 334 334 330 331 321 312 308 302 299 291 283
344 15 64 33 72 44 80 19 61 30 84 328 19 7 20 6 357 359 322 39 54 6 344 347 356 358 51 54 43 47 38 58 58 51 76 8 313 343 344 344 342 331 329 325 318 316 314 310 307 299 299 298 306 305
60 46 51 36 70 31 302 359 357 7 334 337 351 344 17 8 335 330 56 30 348 324 309 319 335 96 93 74 90 65 49 42 29 8 350 337 299 285 312 321 310 307 320 325 318 317 313 314 316 311 309 316 310 306
47 49 38 38 18 263 342 16 19 34 51 18 358 327 357 336 332 52 68 16 338 354 17 13 114 114 111 76 50 26 14 17 7 16 18 359 14 343 328 315 308 280 260 278 305 312 312 311 317 316 310 309 305 301
88 353 16 283 27 61 25 10 10 35 329 355 344 4 348 345 21 44 43 2 1 13 17 32 59 57 76 27 10 356 352 12 0 344 325 243 343 338 344 345 336 313 246 320 332 325 317 313 308 303 304 307 302 308
211 356 109 167 349 2 277 315 359 332 341 348 348 307 347 8 19 0 323 312 342 2 9 25 28 28 32 17 332 333 327 324 332 314 302 225 311 309 313 337 343 334 280 303 314 311 308 306 305 306 305 305 316 324
208 193 74 291 311 128 100 76 82 121 172 320 337 354 12 341 339 336 93 21 328 14 0 13 41 15 332 323 314 302 301 284 251 268 289 289 274 241 229 291 320 305 307 298 296 296 297 298 299 300 304 311 312 313
116 148 185 167 82 31 162 126 153 169 161 203 228 334 307 229 286 15 15 22 10 5 19 359 12 330 316 308 302 308 316 315 305 294 280 279 263 253 239 247 271 299 309 306 295 295 295 296 297 310 316 319 317 320
104 104 120 142 95 74 123 157 164 159 35 160 293 272 219 20 332 348 13 357 19 47 39 17 355 347 348 342 324 313 292 321 34 28 12 351 342 315 302 301 298 299 298 300 311 320 312 319 339 334 335 326 316 311
134 127 114 142 171 186 169 172 152 21 347 27 310 289 255 254 336 285 320 270 274 82 347 322 331 353 348 352 344 345 319 240 215 36 336 319 306 298 303 301 301 300 300 300 301 303 317 330 335 340 343 339 336 337
87 108 105 96 131 167 207 320 310 240 39 38 11 211 271 317 316 217 146 179 154 344 342 340 346 342 332 335 332 329 336 300 247 288 287 283 283 286 287 288 288 288 290 290 293 295 316 327 332 335 339 341 342 349
54 128 140 148 159 313 9 63 65 113 36 22 254 254 305 306 229 231 155 131 80 10 347 345 333 325 313 302 287 263 266 284 299 306 303 295 287 281 279 278 279 276 276 289 297 303 319 322 327 335 337 338 341 344
93 80 76 106 109 127 26 57 50 54 40 43 224 218 228 259 193 330 122 102 77 333 330 321 310 304 301 291 284 283 274 279 296 309 316 314 313 316 312 296 292 297 297 306 287 298 317 325 329 336 339 341 342 343